cliquez pour ajouter le site Runraid à vos favoris  English version (google)  Retour à l'accueil Ecrire à l'auteur du site Runraid : Michel Jourdan



Les prochaines courses


Les derniers résultats

cliquez pour visualiser la page complète relatant la chronologie des éruptions du Piton de la Fournaise
éruptions Piton de la Fournaise


Ile de La Réunion

 Diagonale des Fous 

Nouveautés du site

Ecrire au créateur du site : Michel Jourdan
Contact


2017-04-30 - Championnat Marathon 2017

Pour consulter le palmarès d'un coureur, un clic sur son nom !

Vous avez des remarques, corrections, ... sur ces résultats , un clic sur --> pour me transmettre toute information concernant les classements


Championnat Marathon 2017 - 2017 : classement des 70 finishers
Place Nom Temps Cat. Club Sexe Clt/cat.
Place Nom Temps Cat. Club Sexe Clt/cat.
1 LEBON FRANCOIS 02:31:10 V1M CASM M 5
2 SANION Siurfa 02:40:55 SEM DENIV M 1 SEM 73
3 DUPUY David 02:54:27 V1M USPGA M 2 V1M 78
4 ROUGET JEAN WILLY 02:55:10 SEM CTBP M 2 SEM 35
5 SALVADOR JEAN LOUIS 02:56:33 V2M CAPP M 1 V2M 56
6 LALLEMAND KEVIN 02:58:13 SEM CASL M 3 SEM 11
7 RIQUIER CEDRIC 03:02:04 SEM M 4 SEM 4
8 GAUVIN DIDIER 03:09:23 V2M CTBP M 2 V2M 36
9 GALAIS GILBERT 03:13:31 SEM M 5 SEM 29
10 ASTY GILBERT 03:15:30 V2M CTBP M 3 V2M 33
11 BARET FREDERIC 03:15:53 V1M M 3 V1M 67
12 BITROU THIERRY 03:16:04 V1M DENIV M 4 V1M 22
13 CASSARO Frederic 03:21:35 V1M M 5 V1M 49
14 BOYER JOSEPH 03:21:55 V1M M 6 V1M 63
15 TAOCHY HELENE 03:22:25 V2F CAG F 1ere F 28
16 RIBAULT Pierre 03:24:24 SEM M 6 SEM 50
17 JOBERT CHRISTIAN 03:30:01 V3M AC ENTENTE M 1 V3M 47
18 HODJI Chantal 03:31:05 V2F CASM F 2eme F 77
19 FUGIER LIONEL 03:31:17 SEM DENIV M 7 SEM 26
20 GUYOT Daniel 03:31:27 V2M M 4 V2M 9
21 FANCHIN VIVIANE 03:32:11 V2F DENIV F 3eme F 37
22 NONVAL Jacob 03:33:37 V1M M 7 V1M 74
23 AUBERT Olivier 03:37:21 V1M M 8 V1M 1
24 INJIRAKY Jean Alex 03:38:28 V1M M 9 V1M 72
25 NARAYANIN HONORE 03:39:07 V2M M 5 V2M 71
26 DIJOUX OLIVIA 03:41:21 V1F CAPC F 4 F - 1 V1F 46
27 EL KHILALI ABDELHADI 03:43:27 V2M CTBP M 6 V2M 34
28 JURE Patrick 03:44:30 V2M M 7 V2M 24
29 BLARD BEATRICE 03:46:15 V1F ACM F 5 F - 2 V1F 60
30 BRANCARD Ignace Joseph 03:46:29 V2M M 8 V2M 18
31 PAVIE Jeremie 03:49:13 SEM M 8 SEM 43
32 BARZIC NICOLAS 03:49:32 SEM M 9 SEM 39
33 DURANDEAU David 03:49:50 SEM M 10 SEM 2
34 TIMALACOME JEAN SEBASTIEN 03:51:44 V1M M 10 V1M 69
35 FRANCO JULIEN 03:52:23 V1M M 11 V1M 10
36 TOUSSAINT Mireille 03:56:09 V1F F 6 F - 3 V1F 17
37 PROT MYRIAM 03:56:44 V2F F 7 F - 4 V2F 19
38 MINIAMA MARIE LAURE 03:57:46 SEF F 8 F - 1 SEF 48
39 JANIS bruno 03:57:57 V1M M 12 V1M 41
40 LORENZON frederic 03:58:45 V1M M 13 V1M 21
41 ROUQUETTE Pierre 04:02:18 SEM M 11 SEM 40
42 TOUSSAINT Cyrille 04:02:37 V1M M 14 V1M 15
43 BAUVIES Pascal 04:05:09 V1M M 15 V1M 23
44 MAILLOT SERGE 04:06:02 V3M M 2 V3M 70
45 SIDAMABAROMPOULE MONIKA 04:06:16 V1F DENIV F 9 F - 4 V1F 30
46 BORNOT DENIS 04:06:56 V3M CAPC M 3 V3M 45
47 DIVOL MARIE JUDITH 04:09:19 V1F F 10 F - 5 V1F 52
48 AURE Fabrice 04:11:15 V2M M 9 V2M 76
49 DAVID HELENE 04:12:16 V1F DENIV F 11 F - 6 V1F 25
50 LAI CHEUNG KIT PHILIPPE 04:16:28 V3M M 4 V3M 68
51 SALVADO florence 04:17:48 V1F F 12 F - 7 V1F 12
52 BARBIN ANDRE MICHEL 04:21:12 V3M CAPOSS M 5 V3M 42
53 INGRAT JOHNY 04:22:05 V2M C.A.S.S. M 10 V2M 61
54 WADAANE RAMZI 04:25:48 SEM USPGA M 12 SEM 32
55 LACOSTE nicole 04:27:20 V1F F 13 F - 8 V1F 38
56 PATISSIER Joselito 04:40:12 SEM M 13 SEM 7
57 BONY frederic 04:46:53 SEM M 14 SEM 6
58 THIBAULT AUDE 04:48:18 V1F F 14 F - 9 V1F 65
59 THIBAULT PIERRE 04:48:19 V1M M 16 V1M 64
60 SALING mathieu 04:50:30 V1M M 17 V1M 51
61 PAiNIGRA JACQUES 04:54:24 V2M M 11 V2M 14
62 OULEDI Expedit 05:05:32 V1M M 18 V1M 20
63 LAPATHIA SARAH 05:17:22 V2F DENIV F 15 F - 5 V2F 59
64 HUET GEORGES MARIE 05:17:23 V1M M 19 V1M 44
65 GIRAL DEBOISVILLIERS YOEN 05:23:48 ESM M 1 ESM 66
66 MINGANT Florent 05:40:28 SEM M 15 SEM 3
67 DESCAMPS Axel 05:52:16 SEM M 16 SEM 75
68 CUVELIER Sebastien 05:52:17 SEM M 17 SEM 13
69 BLANCA serge 05:52:20 V1M M 20 V1M 31
70 MOLINIER Maxence 06:00:59 SEM M 18 SEM 27


ReferencementCe site est listé dans la catégorie Sport : Sports extrêmes Dictionnaire
| Accueil | La Réunion  Vue du ciel | Météo | Cyclones | Volcan | Cirques de Mafate , Cilaos , Salazie | Photos Randonnées | Randonnées Réunion: Randos Espiègle , Courses montagne | Diagonale des Fous |  Marathon des Sables | Voyages Les stats du site | Fonds écran | Plan du site | Blog de runraid | Galerie photos Sport Réunion |